Location: Columbia
(38.9520°N, 92.3340°W)
Time: 00:16:04
(UTC-05:00)

Iridium 52 - Visible Passes

Search period start: 27 April 2017 00:00
Search period end: 07 May 2017 00:00
Orbit: 776 x 779 km, 86.4° (Epoch: 25 April)

Date Brightness Start Highest point End Pass type
(mag) Time Alt. Az. Time Alt. Az. Time Alt. Az.
27 Apr 8.2 00:24:54 10° NW 00:27:23 19° WNW 00:27:23 19° WNW visible
27 Apr 7.6 22:10:31 10° NNE 22:13:39 21° ENE 22:13:39 21° ENE visible
27 Apr 7.5 23:50:36 10° NNW 23:54:08 33° NW 23:54:08 33° NW visible
28 Apr 8.1 21:38:44 10° NE 21:40:25 12° ENE 21:40:25 12° ENE visible
28 Apr 6.6 23:16:47 10° N 23:20:54 55° NNW 23:20:54 55° NNW visible
29 Apr 6.4 22:43:16 10° N 22:47:41 54° NE 22:47:41 54° NE visible
30 Apr 8.4 00:25:52 10° NW 00:28:10 14° WNW 00:28:10 14° WNW visible
30 Apr 6.9 22:10:08 10° NNE 22:14:28 32° ENE 22:14:28 32° ENE visible
30 Apr 7.7 23:51:03 10° NNW 23:54:57 26° WNW 23:54:57 26° WNW visible
01 May 7.6 21:37:32 10° NE 21:41:00 18° ENE 21:41:16 18° E visible
01 May 6.7 23:16:58 10° NNW 23:21:45 49° WNW 23:21:45 49° WNW visible
02 May 5.9 22:43:17 10° N 22:48:32 88° E 22:48:34 88° ESE visible
03 May 6.3 22:09:55 10° N 22:14:57 47° E 22:15:23 46° E visible
03 May 8.1 23:51:44 10° NW 23:55:14 18° W 23:55:52 18° W visible
04 May 7.1 21:36:55 10° NNE 21:41:14 25° E 21:42:13 24° E visible
04 May 7.3 23:17:18 10° NNW 23:21:57 34° W 23:22:43 32° WSW visible
05 May 7.8 21:04:45 10° NE 21:07:23 14° ENE 21:09:04 12° E visible
05 May 6.3 22:43:24 10° N 22:48:34 64° W 22:49:33 52° SW visible
06 May 6.0 22:09:50 10° N 22:15:03 69° E 22:16:25 48° SSE visible
06 May 8.5 23:52:57 10° NW 23:55:04 12° WNW 23:56:55 11° W visible
